Torna al catalogo

DELTA 1 DEB

AttivoSSO
NORAD 7152·DEBRIS·🇺🇸 United States

Lanciato Nov 6, 1973 da Vandenberg Space Force Base

Loading…

Prossimi Passaggi (prossime 24 ore)

TLE

AggiornatoSource: Space-Track

Epoca: Sep 14, 2026, 09:16 UTC

1 07152U 73086DS  26257.38665449 -.00000063  00000-0 -15041-3 0  9991
2 07152 102.3084 216.0552 0080185 266.5233 249.1868 12.28555446369643

Traccia DELTA 1 DEB in tempo reale con AllMySat

Download on the App Store